Stations météo

Publicité
Grenoble/St.Geoirs, France (7486): Température de l'air & dewpoint: 20.03.2017 09:00:00 - 26.03.2017 09:00:00 (CEST)Grenoble/St.Geoirs, France (7486): Température de l'air 5cm: 20.03.2017 09:00:00 - 26.03.2017 09:00:00 (CEST)Grenoble/St.Geoirs, France (7486): Température de l'air -20cm & Température de l'air -100cm: 20.03.2017 09:00:00 - 26.03.2017 09:00:00 (CEST)Grenoble/St.Geoirs, France (7486): Vitesse du vent & gusts: 20.03.2017 09:00:00 - 26.03.2017 09:00:00 (CEST)Grenoble/St.Geoirs, France (7486): Direction du vent: 20.03.2017 09:00:00 - 26.03.2017 09:00:00 (CEST)Grenoble/St.Geoirs, France (7486): reduced air pressure: 20.03.2017 09:00:00 - 26.03.2017 09:00:00 (CEST)Grenoble/St.Geoirs, France (7486): visibility: 20.03.2017 09:00:00 - 26.03.2017 09:00:00 (CEST)Grenoble/St.Geoirs, France (7486): Ensoleillement: 20.03.2017 09:00:00 - 26.03.2017 09:00:00 (CEST)Grenoble/St.Geoirs, France (7486): Quantités de précipitations: 20.03.2017 09:00:00 - 26.03.2017 09:00:00 (CEST)
Date & Time tt [°C] td [°C] tt 5cm [°C] tt -20cm [°C] tt -100cm [°C] ff [km/h] ff [knt] fx [km/h] fx [knt] dd ppp [hPa] vv [km] sd [min] rr [mm]
26.03.2017 09:00:00 6,9 3,9 5,3 10,0 9,6 19 10 24 13 E 1020,5 44 60 0,0
26.03.2017 08:00:00 4,8 3,1 3,6 10,0 9,6 16 9 24 13 E 1021,0 37 8 0,0
26.03.2017 07:00:00 4,7 2,9 3,5 10,0 9,6 15 8 22 12 E 1021,1 59 0 0,0
26.03.2017 06:00:00 5,6 3,1 4,6 10,1 9,6 14 8 21 12 E 1020,8 60 0 0,0
26.03.2017 05:00:00 5,7 3,4 4,6 10,2 9,6 14 8 20 11 ENE 1020,8 50 0 0,0
26.03.2017 04:00:00 6,3 4,1 5,6 10,2 9,6 13 7 19 10 E 1021,0 43 0 0,0
26.03.2017 03:00:00 6,3 4,1 5,6 10,2 9,5 11 6 14 8 E 1021,1 60 0 0,0
26.03.2017 02:00:00 6,1 4,1 5,4 10,3 9,6 8 4 12 6 E 1020,9 60 0 0,0
26.03.2017 01:00:00 6,7 4,2 6,0 10,3 9,6 8 4 18 10 ENE 1020,3 60 0 0,0
26.03.2017 00:00:00 6,9 4,2 6,5 10,4 9,6 13 7 22 12 ENE 1020,1 60 0 0,0
25.03.2017 23:00:00 6,9 4,0 6,5 10,4 9,6 14 8 24 13 ENE 1020,2 60 0 0,0
25.03.2017 22:00:00 7,2 4,2 6,7 10,4 9,5 19 10 31 17 E 1020,3 60 0 0,0
25.03.2017 21:00:00 7,8 4,6 7,2 10,4 9,6 16 9 24 13 E 1019,7 59 0 0,0
25.03.2017 20:00:00 7,7 5,3 7,3 10,4 9,5 13 7 17 9 E 1019,4 59 0 0,0
25.03.2017 19:00:00 8,7 4,9 8,5 10,3 9,6 10 6 15 8 E 1019,4 60 0 0,0
25.03.2017 18:00:00 8,9 4,5 7,2 10,3 9,5 8 5 14 7 SE 1019,3 60 0 0,0
25.03.2017 17:00:00 7,7 3,7 6,5 10,3 9,5 5 3 34 18 W 1019,9 53 0 1,2
25.03.2017 16:00:00 7,6 4,5 6,7 10,2 9,5 18 10 49 27 W 1020,1 8 0 0,4
25.03.2017 15:00:00 9,2 4,4 8,7 10,1 9,5 31 17 66 35 SW 1019,5 45 0 0,0
25.03.2017 14:00:00 10,7 7,0 10,9 10,0 9,5 28 15 40 22 WSW 1018,5 7 3 0,0
25.03.2017 13:00:00 13,1 8,6 15,3 10,0 9,5 24 13 36 20 WSW 1016,0 8 55 0,0
25.03.2017 12:00:00 13,0 7,9 16,6 10,0 9,5 6 3 11 6 WNW 1015,4 10 58 0,0
25.03.2017 11:00:00 11,2 7,9 14,1 10,1 9,5 4 2 11 6 SE 1016,0 8 60 0,0
25.03.2017 10:00:00 8,4 8,0 7,1 10,2 9,5 2 1 10 5 SSW 1017,1 2,0 46 0,0
25.03.2017 09:00:00 4,8 4,4 2,7 10,2 9,5 3 2 8 5 SW 1017,5 0,1 46 0,0
25.03.2017 08:00:00 3,0 2,6 0,6 10,3 9,5 5 3 7 4 E 1017,9 0,1 4 0,0
25.03.2017 07:00:00 4,1 3,5 1,6 10,4 9,5 4 2 11 6 SE 1018,4 0,1 0 0,0
25.03.2017 06:00:00 4,5 3,8 1,5 10,5 9,5 6 4 10 5 E 1019,0 0,1 0 0,0
25.03.2017 05:00:00 5,1 4,2 1,9 10,5 9,5 2 1 8 4 SW 1019,5 0,6 0 0,0
25.03.2017 04:00:00 6,4 5,7 4,4 10,5 9,5 5 3 11 6 ENE 1019,7 1,5 0 0,0
25.03.2017 03:00:00 7,4 6,7 4,1 10,6 9,5 4 2 11 6 SE 1020,3 2,1 0 0,0
25.03.2017 02:00:00 6,6 5,5 4,1 10,6 9,5 3 1 7 4 N 1020,9 2,1 0 0,0
25.03.2017 01:00:00 7,9 6,4 5,8 10,6 9,5 0 0 19 10 N 1020,2 4,1 0 0,0
25.03.2017 00:00:00 8,7 7,6 7,8 10,6 9,5 14 8 21 11 N 1020,5 4,7 0 0,0
24.03.2017 23:00:00 9,0 7,0 5,2 10,6 9,5 9 5 18 10 NNE 1020,6 8 0 0,0
24.03.2017 22:00:00 9,3 6,9 6,2 10,6 9,5 3 1 13 7 NNE 1020,3 11 0 0,0
24.03.2017 21:00:00 10,0 7,6 7,9 10,6 9,5 0 0 16 9 N 1020,1 12 0 0,0
24.03.2017 20:00:00 10,9 7,9 9,5 10,5 9,5 3 2 7 4 N 1019,8 12 14 0,0
24.03.2017 19:00:00 11,9 8,2 11,8 10,5 9,5 5 3 8 4 E 1019,5 15 0 0,0
24.03.2017 18:00:00 12,1 8,2 12,0 10,5 9,5 5 3 16 9 NE 1019,0 16 0 0,0
24.03.2017 17:00:00 11,5 8,0 12,1 10,4 9,4 12 6 26 14 NE 1019,2 13 0 0,0
24.03.2017 16:00:00 11,9 8,2 12,7 10,4 9,4 14 8 23 12 NE 1018,7 15 0 0,0
24.03.2017 15:00:00 11,2 8,1 12,3 10,4 9,5 13 7 17 9 N 1019,4 14 0 0,0
24.03.2017 14:00:00 11,8 7,7 14,2 10,4 9,5 8 4 15 8 NNE 1019,6 20 0 0,0
24.03.2017 13:00:00 10,8 7,1 11,6 10,4 9,4 0 0 11 6 N 1019,5 38 0 0,0
24.03.2017 12:00:00 9,8 6,5 10,1 10,4 9,4 9 5 13 7 N 1019,7 49 0 0,0
24.03.2017 11:00:00 9,1 6,5 9,1 10,4 9,4 2 1 5 3 WNW 1019,7 59 0 0,0
24.03.2017 10:00:00 8,4 6,9 8,1 10,5 9,4 3 2 5 3 NW 1019,3 37 0 0,0
24.03.2017 09:00:00 7,7 6,6 6,7 10,5 9,4 5 3 8 5 SSW 1019,6 19 0 0,0
24.03.2017 08:00:00 7,1 5,9 6,5 10,6 9,4 0 0 6 3 N 1018,5 59 0 0,0
24.03.2017 07:00:00 7,0 5,8 6,3 10,6 9,4 3 1 9 5 ESE 1018,2 51 0 0,0
24.03.2017 06:00:00 6,9 6,0 6,2 10,7 9,4 3 2 6 3 E 1017,5 13 0 0,4
24.03.2017 05:00:00 6,8 5,7 5,9 10,7 9,4 2 1 11 6 SSW 1018,4 20 0 0,0
24.03.2017 04:00:00 6,9 6,0 6,3 10,8 9,4 9 5 17 9 E 1018,2 11 0 0,6
24.03.2017 03:00:00 6,7 5,6 6,3 10,9 9,4 8 4 14 8 E 1019,1 10 0 1,0
24.03.2017 02:00:00 6,6 5,5 6,2 10,9 9,4 11 6 13 7 E 1019,2 11 0 0,6
24.03.2017 01:00:00 6,4 5,2 5,8 10,9 9,4 5 3 20 11 ESE 1018,9 7 0 2,0
24.03.2017 00:00:00 6,7 5,3 6,2 11,0 9,4 7 4 18 10 NE 1018,2 6 0 3,4
23.03.2017 23:00:00 7,4 5,7 6,8 11,0 9,4 9 5 39 21 N 1017,0 3,6 0 2,2
23.03.2017 22:00:00 9,3 7,2 8,6 10,9 9,3 21 12 42 23 W 1014,8 17 0 1,0
23.03.2017 21:00:00 12,5 7,4 11,5 10,9 9,3 21 11 35 19 WNW 1012,3 45 0 0,0
23.03.2017 20:00:00 15,1 0,5 13,4 10,8 9,4 22 12 45 25 S 1010,6 60 0 0,0
23.03.2017 19:00:00 15,5 1,2 14,9 10,7 9,3 21 12 57 31 SSE 1009,3 54 18 0,0
23.03.2017 18:00:00 16,8 1,2 17,4 10,6 9,3 31 17 64 35 SSE 1007,9 31 54 0,0
23.03.2017 17:00:00 17,6 2,3 18,0 10,5 9,3 29 16 69 37 S 1006,9 35 45 0,0
23.03.2017 16:00:00 18,6 2,0 22,0 10,4 9,3 32 17 63 34 S 1006,2 33 60 0,0
23.03.2017 15:00:00 19,0 1,9 22,9 10,3 9,2 33 18 61 33 SSE 1006,7 45 60 0,0
23.03.2017 14:00:00 19,0 4,0 19,5 10,3 9,3 20 11 44 24 S 1007,1 59 46 0,0
23.03.2017 13:00:00 16,8 5,7 18,6 10,3 9,3 7 4 20 11 N 1007,6 50 40 0,0
23.03.2017 12:00:00 15,2 5,1 15,2 10,3 9,2 15 8 29 15 E 1007,8 41 54 0,0
23.03.2017 11:00:00 12,7 6,1 11,5 10,4 9,3 23 12 35 19 E 1008,4 21 60 0,0
23.03.2017 10:00:00 10,0 5,6 8,1 10,4 9,2 24 13 34 18 E 1009,7 20 46 0,0
23.03.2017 09:00:00 7,8 5,4 6,8 10,5 9,2 14 7 27 15 ENE 1010,4 26 0 0,0
23.03.2017 08:00:00 7,3 5,3 6,7 10,5 9,2 17 9 24 13 E 1010,3 20 0 0,0
23.03.2017 07:00:00 8,0 4,9 6,9 10,6 9,2 15 8 32 18 E 1010,0 19 0 0,2
23.03.2017 06:00:00 7,9 5,5 5,1 10,7 9,2 14 8 28 15 ESE 1010,2 9 0 0,4
23.03.2017 05:00:00 5,9 4,2 3,6 10,7 9,2 16 9 22 12 E 1009,9 20 0 0,0
23.03.2017 04:00:00 6,1 4,7 5,0 10,8 9,2 14 8 21 11 E 1010,6 14 0 0,0
23.03.2017 03:00:00 6,3 5,1 3,4 10,8 9,2 8 4 17 9 ESE 1011,0 12 0 0,0
23.03.2017 02:00:00 7,4 5,2 4,2 10,8 9,2 6 3 7 4 NNE 1011,3 14 0 0,0
23.03.2017 01:00:00 8,1 5,7 6,2 10,9 9,2 4 2 11 6 N 1011,4 14 0 0,0
23.03.2017 00:00:00 9,0 5,6 7,1 10,9 9,2 7 4 14 8 SE 1011,3 53 0 0,0
22.03.2017 23:00:00 8,5 5,8 5,0 10,9 9,2 9 5 16 9 ESE 1011,3 25 0 0,0
22.03.2017 22:00:00 9,0 5,7 6,6 10,8 9,2 7 4 27 14 S 1011,1 28 0 0,6
22.03.2017 21:00:00 9,9 4,5 9,2 10,8 9,2 4 2 17 9 N 1010,5 30 0 0,0
22.03.2017 20:00:00 10,4 6,2 9,7 10,7 9,2 9 5 14 8 NE 1009,8 47 0 0,0
22.03.2017 19:00:00 11,8 5,9 11,1 10,6 9,1 4 2 8 4 ENE 1009,0 47 0 0,0
22.03.2017 18:00:00 12,3 4,8 12,1 10,5 9,1 8 4 9 5 E 1009,2 60 0 0,0
22.03.2017 17:00:00 13,1 3,7 16,5 10,4 9,1 4 2 10 6 W 1009,3 20 19 0,0
22.03.2017 16:00:00 12,5 4,0 15,0 10,3 9,1 5 3 13 7 WNW 1009,6 54 2 0,0
22.03.2017 15:00:00 12,7 4,6 16,7 10,2 9,1 7 4 13 7 WNW 1010,4 45 52 0,0
22.03.2017 14:00:00 11,4 2,7 15,2 10,1 9,1 3 1 12 7 NNW 1011,2 48 47 0,0
22.03.2017 13:00:00 10,6 3,4 15,5 10,1 9,1 6 3 17 9 W 1012,1 46 60 0,0
22.03.2017 12:00:00 9,7 3,2 11,1 10,1 9,1 4 2 9 5 SSW 1012,9 50 53 0,0
22.03.2017 11:00:00 8,4 2,2 10,9 10,2 9,1 4 2 12 6 NNW 1013,4 55 52 0,0
22.03.2017 10:00:00 7,1 2,8 7,8 10,2 9,1 6 3 10 6 NNE 1014,0 34 47 0,0
22.03.2017 09:00:00 5,8 2,6 5,0 10,3 9,1 4 2 8 4 NNE 1014,4 35 18 0,0
22.03.2017 08:00:00 5,0 2,9 4,6 10,4 9,1 3 2 9 5 ENE 1014,5 36 0 0,0
22.03.2017 07:00:00 5,0 2,4 4,7 10,4 9,1 7 4 11 6 N 1015,0 37 0 0,0
22.03.2017 06:00:00 5,4 3,1 4,6 10,4 9,1 7 4 10 5 NNW 1015,1 37 0 0,2
22.03.2017 05:00:00 5,4 2,7 4,8 10,5 9,1 0 0 14 8 N 1015,2 15 0 0,0
22.03.2017 04:00:00 5,6 3,8 5,2 10,6 9,1 4 2 12 6 NW 1015,0 57 0 0,0
22.03.2017 03:00:00 5,8 3,6 5,2 10,6 9,0 4 2 20 11 NNE 1015,2 43 0 0,0
22.03.2017 02:00:00 6,2 3,5 6,0 10,6 9,1 8 5 20 11 NW 1015,4 59 0 0,0
22.03.2017 01:00:00 6,5 3,5 6,4 10,7 9,0 8 4 38 20 W 1015,2 60 0 0,0
22.03.2017 00:00:00 6,8 4,5 6,5 10,7 9,0 20 11 51 27 N 1015,2 52 0 0,0
21.03.2017 23:00:00 8,0 5,8 7,9 10,7 9,0 35 19 49 26 NNW 1014,4 19 0 0,0
21.03.2017 22:00:00 9,9 6,4 7,7 10,6 9,0 22 12 36 19 N 1013,3 21 0 0,0
21.03.2017 21:00:00 9,6 4,6 5,1 10,6 9,0 3 2 9 5 SSE 1012,6 32 0 0,0
21.03.2017 20:00:00 10,8 4,5 7,5 10,5 9,0 7 4 10 6 NE 1012,1 20 25 0,0
21.03.2017 19:00:00 12,8 5,5 12,8 10,4 9,0 6 4 15 8 NNE 1011,5 43 9 0,0
21.03.2017 18:00:00 14,3 5,4 15,3 10,3 9,0 3 2 14 8 NNW 1011,2 16 7 0,0
21.03.2017 17:00:00 14,2 5,3 16,2 10,2 9,0 8 4 16 9 W 1011,3 22 0 0,0
21.03.2017 16:00:00 14,7 4,1 18,9 10,1 9,0 7 4 14 7 NNW 1011,3 31 31 0,0
21.03.2017 15:00:00 14,9 4,3 18,6 10,0 9,0 5 3 16 9 NW 1011,7 42 40 0,0
21.03.2017 14:00:00 13,6 4,5 16,1 10,0 9,0 6 3 13 7 NW 1012,5 20 0 0,0
21.03.2017 13:00:00 13,5 4,1 16,5 9,9 8,9 4 2 16 9 NE 1012,9 60 5 0,0
21.03.2017 12:00:00 12,8 4,2 15,8 10,0 9,0 10 5 16 8 NW 1013,3 58 10 0,0
21.03.2017 11:00:00 12,6 4,8 13,6 10,0 9,0 7 4 17 9 NE 1013,5 53 13 0,0
21.03.2017 10:00:00 11,3 4,5 12,0 10,0 8,9 6 3 11 6 ESE 1013,6 60 15 0,0
21.03.2017 09:00:00 10,3 4,4 8,9 10,0 8,9 5 3 12 6 NE 1014,1 60 5 0,0
21.03.2017 08:00:00 9,7 4,3 8,5 10,1 8,9 4 2 13 7 NE 1014,4 60 0 0,0
21.03.2017 07:00:00 10,0 4,8 8,6 10,1 8,9 4 2 13 7 E 1014,3 60 0 0,0
21.03.2017 06:00:00 10,1 5,7 9,4 10,1 8,9 7 4 14 7 ENE 1014,4 57 0 0,0
21.03.2017 05:00:00 10,4 5,2 9,5 10,3 8,9 5 3 36 20 SSE 1014,3 60 0 0,0
21.03.2017 04:00:00 10,6 5,4 9,0 10,3 8,9 4 2 14 7 S 1014,6 60 0 0,0
21.03.2017 03:00:00 9,4 6,3 6,6 10,4 8,9 5 3 10 5 SW 1014,8 60 0 0,0
21.03.2017 02:00:00 6,7 5,5 2,6 10,4 8,9 0 0 12 7 N 1015,3 34 0 0,0
21.03.2017 01:00:00 6,1 4,6 3,6 10,5 8,9 9 5 12 7 E 1015,6 22 0 0,0
21.03.2017 00:00:00 6,6 4,9 1,9 10,5 8,9 8 4 11 6 ESE 1015,7 30 0 0,0
20.03.2017 23:00:00 6,4 4,4 1,9 10,5 8,9 5 3 8 4 ESE 1015,9 29 0 0,0
20.03.2017 22:00:00 8,2 5,7 2,4 10,5 8,9 4 2 10 6 SE 1015,1 36 0 0,0
20.03.2017 21:00:00 9,2 6,3 5,0 10,4 8,9 4 2 11 6 NNE 1014,6 54 0 0,0
20.03.2017 20:00:00 10,6 6,5 8,1 10,3 8,8 8 4 11 6 NNE 1013,8 55 12 0,0
20.03.2017 19:00:00 14,0 7,3 16,5 10,2 8,9 10 5 13 7 N 1013,2 60 60 0,0
20.03.2017 18:00:00 14,5 7,1 17,3 10,1 8,9 6 4 18 10 NE 1013,0 19 60 0,0
20.03.2017 17:00:00 15,1 7,6 18,5 10,0 8,8 15 8 22 12 N 1013,3 50 33 0,0
20.03.2017 16:00:00 14,5 6,6 18,2 9,9 8,8 8 5 18 10 NNW 1013,6 43 22 0,0
20.03.2017 15:00:00 15,0 7,0 18,1 9,8 8,8 0 0 13 7 N 1014,0 58 19 0,0
20.03.2017 14:00:00 13,3 5,9 16,2 9,8 8,8 6 3 13 7 N 1014,9 54 0 0,0
20.03.2017 13:00:00 12,9 6,2 14,5 9,8 8,8 4 2 15 8 N 1015,4 45 0 0,0
20.03.2017 12:00:00 12,0 6,3 13,4 9,8 8,8 8 5 19 11 N 1015,9 58 0 0,0
20.03.2017 11:00:00 11,6 6,3 12,0 9,8 8,8 13 7 20 11 N 1015,9 55 0 0,0
20.03.2017 10:00:00 10,8 6,0 10,4 9,8 8,8 14 8 21 12 N 1016,1 60 0 0,0
20.03.2017 09:00:00 - - - - - - - - - - - - - -

tt = Température de l'air
td = dewpoint
tt 5cm = Température de l'air 5cm
tt -20cm = Température de l'air -20cm
tt -100cm = Température de l'air -100cm
ff = Vitesse du vent
fx = gusts
dd = Direction du vent
ppp = reduced air pressure
vv = visibility
sd = Ensoleillement
rr = Quantités de précipitations

stations d'obs. à proximité